TimeEST,TemperatureF,Dew PointF,Humidity,Sea Level PressureIn,VisibilityMPH,Wind Direction,Wind SpeedMPH,Gust SpeedMPH,PrecipitationIn,Events,Conditions,WindDirDegrees,DateUTC
12:13 AM,42.8,26.6,53,30.24,10.0,NNW,4.6,-,N/A,,Clear,340,2013-03-09 05:13:00
12:33 AM,42.8,26.6,53,30.23,10.0,NW,4.6,-,N/A,,Clear,320,2013-03-09 05:33:00
12:53 AM,42.8,24.8,49,30.25,10.0,NW,5.8,-,N/A,,Clear,320,2013-03-09 05:53:00
1:13 AM,41.0,24.8,53,30.26,10.0,NNW,5.8,-,N/A,,Clear,330,2013-03-09 06:13:00
1:53 AM,41.0,24.8,53,30.26,10.0,NW,4.6,-,N/A,,Clear,320,2013-03-09 06:53:00
2:13 AM,41.0,24.8,53,30.26,10.0,NW,3.5,-,N/A,,Scattered Clouds,320,2013-03-09 07:13:00
2:33 AM,39.2,24.8,56,30.25,10.0,NW,3.5,-,N/A,,Clear,320,2013-03-09 07:33:00
2:53 AM,39.2,24.8,56,30.25,10.0,NW,4.6,-,N/A,,Clear,320,2013-03-09 07:53:00
3:13 AM,39.2,23.0,52,30.26,10.0,NW,4.6,-,N/A,,Clear,310,2013-03-09 08:13:00
3:33 AM,37.4,23.0,56,30.26,10.0,NNW,4.6,-,N/A,,Clear,330,2013-03-09 08:33:00
3:53 AM,37.4,23.0,56,30.26,10.0,NNW,6.9,-,N/A,,Clear,340,2013-03-09 08:53:00
4:13 AM,37.4,23.0,56,30.26,10.0,NNW,3.5,-,N/A,,Clear,340,2013-03-09 09:13:00
4:33 AM,37.4,23.0,56,30.26,10.0,North,5.8,-,N/A,,Clear,350,2013-03-09 09:33:00
4:53 AM,37.4,23.0,56,30.26,10.0,NW,8.1,-,N/A,,Clear,320,2013-03-09 09:53:00
5:13 AM,37.4,23.0,56,30.27,10.0,NNW,4.6,-,N/A,,Clear,330,2013-03-09 10:13:00
5:33 AM,37.4,23.0,56,30.29,10.0,NW,4.6,-,N/A,,Clear,310,2013-03-09 10:33:00
5:53 AM,37.4,23.0,56,30.28,10.0,NNW,5.8,-,N/A,,Clear,330,2013-03-09 10:53:00
6:13 AM,35.6,23.0,60,30.29,10.0,NW,4.6,-,N/A,,Clear,320,2013-03-09 11:13:00
6:33 AM,35.6,23.0,60,30.30,10.0,NW,3.5,-,N/A,,Clear,310,2013-03-09 11:33:00
7:13 AM,37.4,23.0,56,30.30,10.0,NNW,4.6,-,N/A,,Clear,340,2013-03-09 12:13:00
7:34 AM,37.4,21.2,52,30.31,10.0,NNW,8.1,-,N/A,,Clear,340,2013-03-09 12:34:00
7:54 AM,37.4,21.2,52,30.32,10.0,NNW,5.8,-,N/A,,Clear,340,2013-03-09 12:54:00
8:14 AM,39.2,21.2,49,30.32,10.0,North,6.9,-,N/A,,Clear,350,2013-03-09 13:14:00
8:34 AM,41.0,21.2,45,30.32,10.0,North,6.9,-,N/A,,Clear,350,2013-03-09 13:34:00
8:54 AM,41.0,21.2,45,30.33,10.0,North,5.8,-,N/A,,Clear,360,2013-03-09 13:54:00
9:14 AM,42.8,21.2,42,30.33,10.0,NNW,6.9,-,N/A,,Clear,340,2013-03-09 14:14:00
9:34 AM,44.6,21.2,39,30.34,10.0,NNW,5.8,-,N/A,,Clear,330,2013-03-09 14:34:00
9:54 AM,44.6,21.2,39,30.34,10.0,NNW,4.6,-,N/A,,Clear,340,2013-03-09 14:54:00
10:14 AM,44.6,21.2,39,30.34,10.0,WNW,6.9,-,N/A,,Clear,300,2013-03-09 15:14:00
10:34 AM,46.4,21.2,37,30.33,10.0,NNW,5.8,-,N/A,,Clear,330,2013-03-09 15:34:00
10:54 AM,48.2,21.2,34,30.33,10.0,NNW,5.8,-,N/A,,Clear,330,2013-03-09 15:54:00
11:14 AM,50.0,21.2,32,30.32,10.0,Calm,Calm,-,N/A,,Clear,0,2013-03-09 16:14:00
11:34 AM,50.0,19.4,30,30.32,10.0,NNE,3.5,-,N/A,,Clear,20,2013-03-09 16:34:00
11:54 AM,50.0,21.2,32,30.32,10.0,NNW,3.5,-,N/A,,Clear,340,2013-03-09 16:54:00
12:14 PM,51.8,19.4,28,30.31,10.0,NNE,4.6,-,N/A,,Clear,20,2013-03-09 17:14:00
12:34 PM,51.8,21.2,30,30.30,10.0,ENE,3.5,-,N/A,,Clear,70,2013-03-09 17:34:00
12:54 PM,53.6,21.2,28,30.29,10.0,NE,4.6,-,N/A,,Clear,40,2013-03-09 17:54:00
1:14 PM,53.6,21.2,28,30.29,10.0,NNE,3.5,-,N/A,,Clear,20,2013-03-09 18:14:00
1:34 PM,55.4,19.4,25,30.28,10.0,North,4.6,-,N/A,,Clear,10,2013-03-09 18:34:00
1:54 PM,55.4,17.6,23,30.27,10.0,NE,4.6,-,N/A,,Clear,40,2013-03-09 18:54:00
2:14 PM,55.4,19.4,25,30.26,10.0,North,3.5,-,N/A,,Clear,350,2013-03-09 19:14:00
2:34 PM,57.2,17.6,21,30.26,10.0,NNE,4.6,-,N/A,,Clear,20,2013-03-09 19:34:00
2:54 PM,57.2,17.6,21,30.26,10.0,NNW,8.1,-,N/A,,Clear,330,2013-03-09 19:54:00
3:14 PM,59.0,17.6,20,30.26,10.0,Calm,Calm,-,N/A,,Clear,0,2013-03-09 20:14:00
3:34 PM,59.0,17.6,20,30.27,10.0,WNW,3.5,-,N/A,,Clear,300,2013-03-09 20:34:00
3:54 PM,59.0,17.6,20,30.27,10.0,NW,5.8,-,N/A,,Clear,310,2013-03-09 20:54:00
4:15 PM,59.0,15.8,19,30.27,10.0,NNW,6.9,-,N/A,,Clear,330,2013-03-09 21:15:00
4:35 PM,59.0,14.0,17,30.26,10.0,North,4.6,-,N/A,,Clear,350,2013-03-09 21:35:00
4:55 PM,59.0,14.0,17,30.26,10.0,NW,5.8,-,N/A,,Clear,320,2013-03-09 21:55:00
5:15 PM,59.0,17.6,20,30.26,10.0,NE,4.6,-,N/A,,Clear,50,2013-03-09 22:15:00
5:35 PM,55.4,21.2,26,30.27,10.0,East,4.6,-,N/A,,Clear,100,2013-03-09 22:35:00
5:55 PM,51.8,19.4,28,30.27,10.0,ENE,3.5,-,N/A,,Clear,70,2013-03-09 22:55:00
6:15 PM,50.0,21.2,32,30.28,10.0,Calm,Calm,-,N/A,,Clear,0,2013-03-09 23:15:00
6:35 PM,46.4,23.0,40,30.28,10.0,Calm,Calm,-,N/A,,Clear,0,2013-03-09 23:35:00
6:55 PM,46.4,23.0,40,30.28,10.0,Calm,Calm,-,N/A,,Clear,0,2013-03-09 23:55:00
7:15 PM,44.6,24.8,46,30.29,10.0,Calm,Calm,-,N/A,,Clear,0,2013-03-10 00:15:00
7:35 PM,42.8,24.8,49,30.29,10.0,Calm,Calm,-,N/A,,Clear,0,2013-03-10 00:35:00
7:55 PM,41.0,24.8,53,30.29,10.0,Calm,Calm,-,N/A,,Clear,0,2013-03-10 00:55:00
8:15 PM,41.0,26.6,57,30.30,10.0,Calm,Calm,-,N/A,,Clear,0,2013-03-10 01:15:00
8:35 PM,41.0,24.8,53,30.30,10.0,Calm,Calm,-,N/A,,Clear,0,2013-03-10 01:35:00
8:55 PM,39.2,26.6,61,30.30,10.0,Calm,Calm,-,N/A,,Clear,0,2013-03-10 01:55:00
9:15 PM,37.4,26.6,65,30.30,10.0,Calm,Calm,-,N/A,,Clear,0,2013-03-10 02:15:00
9:35 PM,37.4,26.6,65,30.31,10.0,Calm,Calm,-,N/A,,Clear,0,2013-03-10 02:35:00
9:55 PM,37.4,28.4,70,30.32,10.0,Calm,Calm,-,N/A,,Clear,0,2013-03-10 02:55:00
10:15 PM,37.4,26.6,65,30.32,10.0,Calm,Calm,-,N/A,,Clear,0,2013-03-10 03:15:00
10:35 PM,35.6,26.6,70,30.32,10.0,Calm,Calm,-,N/A,,Clear,0,2013-03-10 03:35:00
10:55 PM,35.6,30.2,81,30.32,10.0,Calm,Calm,-,N/A,,Clear,0,2013-03-10 03:55:00
11:15 PM,35.6,26.6,70,30.31,10.0,Calm,Calm,-,N/A,,Clear,0,2013-03-10 04:15:00
11:35 PM,33.8,24.8,70,30.31,10.0,Calm,Calm,-,N/A,,Clear,0,2013-03-10 04:35:00
11:55 PM,33.8,24.8,70,30.31,10.0,Calm,Calm,-,N/A,,Clear,0,2013-03-10 04:55:00